Location: Koslow
(50.3020°N, 18.5663°E)
Time: 23:28:02
(UTC+00:00)

Cosmos 2058 - Pass Details

Date: 07 June 2020
Orbit: 561 x 584 km, 82.5° (Epoch: 05 July)

Event Time Altitude Azimuth Distance (km) Brightness Sun altitude
Exits shadow 00:50:47 12° 175° (S) 1,775 4.9 -11.8°
Maximum altitude 00:54:37 60° 96° (E) 673 3.4 -11.5°
Drops below altitude 10° 00:58:47 10° 17° (NNE) 1,918 7.0 -11.1°
Sets 01:01:00 0° 14° (NNE) 2,822 8.0 -10.9°
